Flag for U.S.A. Weather past 2 weeks in Newark, New Jersey, U.S.A.

Now
84 °F

Partly sunny.


Feels Like: 88 °F
Forecast: 70 / 89 °F
Wind: No wind

Location: Newark International Airport

Current Time: Sep 2, 2015 at 11:43:23 AM

Latest Report: Sep 2, 2015 at 10:51 AM


Visibility: 7 mi

Pressure: 30.01 "Hg

Humidity: 63%

Dew point: 70 °F

Location of NewarkLocation

Historic Weather in Newark — Graph

°F

Newark temperature yesterday

Maximum temperature yesterday: 87 °F (at 1:51 PM)
Minimum temperature yesterday: 75 °F (at 5:51 AM)
Average temperature yesterday: 81 °F

Past Weeks' High & Low Weather Summary

 TemperatureHumidityPressure
High93 °F (Aug 31, 4:51 PM)94% (Aug 21, 3:02 AM)30.22 "Hg (Aug 21, 3:02 AM)
Low63 °F (Aug 28, 5:51 AM)27% (Aug 25, 4:51 PM)29.80 "Hg (Aug 25, 3:51 PM)
Average78 °F60%30.01 "Hg
* Reported Aug 18 9:51 AM — Sep 2 9:51 AM, Newark, Weather by CustomWeather, © 2015

Note: Actual official high and low records may vary slightly from our data, if they occured in-between our weather recording intervals... More about our weather records

Advertising

Newark weather history for previous 24 hours

 ConditionsComfort  
Time TempWeatherWind HumidityBarometerVisibility
9:51 AM
Wed, Sep 2
81 °FPartly sunny.5 mph69%30.02 "Hg7 mi
8:51 AM76 °FBroken clouds.3 mph85%30.03 "Hg4 mi
7:51 AM74 °FFog.No wind91%30.03 "Hg5 mi
6:51 AM72 °FPassing clouds.No wind87%30.02 "Hg7 mi
5:51 AM72 °FPassing clouds.No wind84%30.02 "Hg10 mi
4:51 AM72 °FClear.3 mph81%30.02 "Hg10 mi
3:51 AM74 °FClear.No wind76%30.02 "Hg10 mi
2:51 AM72 °FClear.No wind81%30.03 "Hg10 mi
1:51 AM74 °FClear.3 mph79%30.04 "Hg10 mi
12:51 AM76 °FClear.No wind74%30.05 "Hg10 mi
11:51 PM
Tue, Sep 1
76 °FClear.No wind74%30.05 "Hg10 mi
10:51 PM78 °FClear.5 mph66%30.05 "Hg10 mi
9:51 PM79 °FClear.No wind65%30.04 "Hg10 mi
8:51 PM79 °FClear.6 mph65%30.04 "Hg10 mi
7:51 PM80 °FPassing clouds.6 mph62%30.02 "Hg10 mi
6:51 PM81 °FPassing clouds.7 mph60%30.01 "Hg10 mi
5:51 PM82 °FPassing clouds.7 mph56%30.00 "Hg10 mi
4:51 PM85 °FPassing clouds.8 mph51%30.00 "Hg10 mi
3:51 PM87 °FScattered clouds.5 mph46%30.01 "Hg10 mi
2:51 PM87 °FScattered clouds.8 mph45%30.02 "Hg10 mi
1:51 PM87 °FScattered clouds.No wind43%30.03 "Hg10 mi
12:51 PM85 °FScattered clouds.3 mph46%30.04 "Hg10 mi
11:51 AM85 °FPassing clouds.3 mph48%30.05 "Hg10 mi
Weather by CustomWeather, © 2015

See weather overviewHow to use our weather pages